Simultaneous Nadir Overpasses (SNOs) Predictions

Prediction of SNOs between GOES-17 and NOAA-19 Satellite Orbit:

Table of predicted SNOs for the next 14.0 days since TLE Epoch: 11/7/2020
Index Date Time (GOES-17) GOES-17 Lat,Lon NOAA-19 Lat,Lon Distance(km) Time Diff (sec)
1 11/07/2020 15:36:34 -0.03,-137.23 0.59,-139.95 310.09 80
2 11/08/2020 15:27:31 -0.03,-137.24 -0.05,-137.09 16.56 80
3 11/09/2020 15:15:50 -0.03,-137.24 -0.75,-134.24 342.93 80
4 11/12/2020 03:34:13 0.03,-137.22 -0.42,-139.21 226.94 80
5 11/13/2020 03:25:10 0.03,-137.22 0.24,-136.35 99.19 80
6 11/14/2020 03:13:28 0.02,-137.21 0.90,-133.49 425.12 80
7 11/15/2020 15:43:20 -0.02,-137.21 0.95,-141.27 464.02 80
8 11/16/2020 15:31:39 -0.02,-137.20 0.25,-138.42 138.71 80
9 11/17/2020 15:22:36 -0.01,-137.19 -0.40,-135.55 186.45 80
10 11/20/2020 03:40:57 0.01,-137.14 -0.76,-140.52 385.67 80
